GW0329 Weather Reports


time (UTC)temp
F
wind
direction
speed
knots
gust
knots
rain 1hr
in
rain 24hr
in
rain mn
in
humidity
%
barometer
mb
20260506175847 55 299 4.3 9.6 0.00 0.47 0.47 74 1010.0
20260506175344 55 259 4.3 9.6 0.00 0.47 0.47 73 1010.1
20260506174841 53 273 4.3 7.0 0.00 0.47 0.47 79 1009.8
20260506174338 53 261 7.8 9.6 0.00 0.47 0.47 81 1009.8
20260506173836 52 283 3.5 5.2 0.00 0.47 0.47 81 1009.9
20260506173332 53 285 5.2 8.7 0.00 0.47 0.47 79 1009.9
20260506172830 53 290 2.6 6.1 0.00 0.47 0.47 79 1009.8
20260506172326 52 313 1.7 7.0 0.00 0.47 0.47 81 1010.0
20260506171824 52 294 5.2 5.2 0.00 0.47 0.47 81 1009.6
20260506171321 52 279 2.6 5.2 0.00 0.47 0.47 80 1009.8
20260506170819 53 278 5.2 7.0 0.00 0.47 0.47 80 1010.0
20260506170314 53 222 3.5 5.2 0.00 0.47 0.47 80 1009.7
20260506165813 52 243 2.6 3.5 0.02 0.47 0.47 84 1009.9
20260506165310 52 284 1.7 5.2 0.02 0.47 0.47 82 1009.8
20260506164807 52 346 1.7 2.6 0.00 0.47 0.47 82 1009.6
20260506164304 52 295 6.1 9.6 0.00 0.47 0.47 83 1009.7
20260506163801 52 269 3.5 7.8 0.00 0.47 0.47 80 1009.8
20260506163256 52 268 6.1 7.0 0.00 0.47 0.47 82 1009.5
20260506162752 52 276 0.9 4.3 0.00 0.47 0.47 84 1009.4
20260506162250 52 282 5.2 5.2 0.00 0.47 0.47 83 1009.6
20260506161747 51 240 3.5 4.3 0.00 0.47 0.47 85 1009.3
20260506161244 51 310 2.6 7.0 0.00 0.47 0.47 83 1009.4
20260506160741 51 307 3.5 5.2 0.00 0.47 0.47 84 1009.5
20260506160238 51 241 1.7 6.1 0.00 0.47 0.47 84 1009.3
20260506155737 51 288 9.6 11.3 0.00 0.47 0.47 84 1009.3
20260506155233 52 0 2.6 11.3 0.00 0.47 0.47 83 1009.3
20260506153340 50 272 1.7 3.5 0.00 0.47 0.47 90 1009.3
20260506152837 50 22 1.7 4.3 0.00 0.47 0.47 90 1009.3
20260506152334 50 314 3.5 4.3 0.00 0.47 0.47 88 1008.9
20260506151833 50 339 1.7 8.7 0.00 0.47 0.47 90 1008.8
20260506151329 50 321 5.2 8.7 0.00 0.47 0.47 89 1008.7
20260506150826 50 277 4.3 11.3 0.00 0.47 0.47 90 1008.5
20260506150323 50 345 1.7 7.8 0.00 0.47 0.47 93 1008.5
20260506145820 49 299 0.0 3.5 0.00 0.47 0.47 93 1008.5
20260506145316 49 287 5.2 9.6 0.00 0.47 0.47 94 1008.4
20260506144814 49 273 6.1 8.7 0.00 0.47 0.47 94 1008.3
20260506144310 49 251 2.6 5.2 0.00 0.47 0.47 94 1008.3
20260506143809 49 7 3.5 3.5 0.00 0.47 0.47 95 1008.2
20260506143305 49 273 4.3 6.1 0.00 0.47 0.47 94 1008.1
20260506142804 49 266 7.0 8.7 0.00 0.47 0.47 95 1008.1
20260506142301 49 320 7.8 7.8 0.00 0.47 0.47 95 1008.0
20260506141800 49 333 0.9 3.5 0.00 0.47 0.47 96 1007.6
20260506141258 48 263 1.7 3.5 0.00 0.47 0.47 96 1007.8
20260506140755 48 311 2.6 3.5 0.00 0.47 0.47 96 1007.9
20260506140252 48 242 2.6 5.2 0.00 0.47 0.47 95 1007.7
20260506135749 48 255 2.6 4.3 0.00 0.47 0.47 96 1007.7
20260506135245 48 317 0.0 9.6 0.00 0.47 0.47 96 1007.6
20260506134742 48 17 5.2 7.0 0.00 0.47 0.47 96 1007.6
20260506134238 48 310 5.2 8.7 0.00 0.47 0.47 97 1007.5
20260506133736 48 321 5.2 7.0 0.00 0.47 0.47 97 1007.7
20260506133232 48 309 2.6 5.2 0.00 0.47 0.47 97 1007.7
20260506132729 48 324 3.5 4.3 0.00 0.47 0.47 97 1007.3
20260506132226 47 265 2.6 5.2 0.02 0.47 0.47 97 1007.2
20260506131724 47 10 0.0 3.5 0.02 0.47 0.47 97 1007.3
20260506131220 47 342 2.6 5.2 0.00 0.46 0.46 97 1007.9
20260506130717 47 33 1.7 3.5 0.00 0.46 0.46 97 1007.6
20260506130214 47 302 1.7 3.5 0.00 0.46 0.46 97 1007.5
20260506125712 46 297 1.7 7.8 0.00 0.46 0.46 97 1007.4
20260506125209 46 289 2.6 7.8 0.00 0.46 0.46 97 1007.5
20260506124707 47 284 7.0 8.7 0.00 0.46 0.46 97 1007.5
20260506124205 47 338 1.7 4.3 0.00 0.46 0.46 97 1007.4
20260506123702 47 359 5.2 6.1 0.00 0.46 0.46 97 1007.0
20260506123201 47 4 10.4 11.3 0.00 0.46 0.46 97 1006.9
20260506122657 47 304 1.7 9.6 0.00 0.46 0.46 97 1006.8
20260506122155 47 335 5.2 6.1 0.00 0.46 0.46 97 1006.5
20260506121652 47 287 4.3 5.2 0.00 0.46 0.46 97 1006.1
20260506121148 47 163 1.7 4.3 0.00 0.46 0.46 97 1006.0
20260506120647 47 46 3.5 9.6 0.02 0.46 0.46 97 1006.3
20260506120143 48 352 2.6 7.0 0.02 0.46 0.46 97 1006.7
20260506115642 48 317 2.6 5.2 0.00 0.46 0.46 96 1006.8
20260506115140 48 283 1.7 5.2 0.02 0.46 0.46 96 1006.7
20260506114637 48 350 1.7 5.2 0.02 0.46 0.46 96 1006.7
20260506114135 48 310 3.5 3.5 0.00 0.45 0.45 96 1006.7
20260506113633 48 345 3.5 3.5 0.00 0.45 0.45 96 1006.6
20260506113130 48 331 0.9 2.6 0.00 0.45 0.45 96 1006.5
20260506112626 48 337 1.7 7.0 0.00 0.45 0.45 96 1006.4
20260506112124 48 343 4.3 9.6 0.02 0.45 0.45 96 1006.2
20260506111621 49 11 6.1 7.8 0.02 0.45 0.45 96 1005.8
20260506111119 49 31 7.0 8.7 0.00 0.45 0.45 96 1005.6
20260506110616 49 327 3.5 7.0 0.00 0.45 0.45 96 1005.3
20260506110113 49 3 3.5 11.3 0.00 0.45 0.45 96 1005.7
20260506105609 50 310 3.5 7.0 0.02 0.45 0.45 96 1005.7
20260506105107 50 348 1.7 8.7 0.02 0.45 0.45 96 1005.2
20260506104605 50 288 7.8 9.6 0.02 0.45 0.45 96 1005.2
20260506104102 50 356 1.7 6.1 0.02 0.45 0.45 96 1005.7
20260506103559 50 302 2.6 7.0 0.02 0.44 0.44 96 1005.7
20260506103056 51 277 8.7 11.3 0.07 0.44 0.44 95 1005.5
20260506102554 52 309 7.0 8.7 0.12 0.43 0.43 96 1004.9
20260506102051 53 308 3.5 12.2 0.17 0.42 0.42 96 1005.1
20260506101548 53 307 7.0 10.4 0.21 0.41 0.41 96 1005.1
20260506101045 55 2 5.2 13.0 0.17 0.39 0.39 96 1005.2
20260506100543 56 256 5.2 6.1 0.09 0.38 0.38 98 1004.8
20260506100041 56 199 1.7 3.5 0.02 0.37 0.37 98 1004.7
20260506095540 56 216 3.5 3.5 0.07 0.36 0.36 97 1004.7
20260506095035 56 189 1.7 3.5 0.14 0.36 0.36 97 1004.7
20260506094533 56 200 0.0 4.3 0.12 0.35 0.35 97 1004.6
20260506094031 56 235 5.2 6.1 0.05 0.34 0.34 97 1004.5
20260506093529 56 223 3.5 5.2 0.02 0.33 0.33 97 1004.7
20260506093026 56 194 0.9 2.6 0.02 0.33 0.33 97 1004.6
20260506092524 56 192 1.7 4.3 0.05 0.32 0.32 97 1004.7
20260506092020 56 179 2.6 5.2 0.07 0.32 0.32 97 1004.6
20260506091519 56 184 1.7 7.8 0.09 0.32 0.32 97 1004.5
20260506091016 56 174 4.3 5.2 0.14 0.31 0.31 97 1004.4
20260506090514 56 214 1.7 3.5 0.09 0.30 0.30 97 1004.4
20260506090010 56 202 2.6 2.6 0.09 0.29 0.29 97 1004.7
20260506085507 56 171 2.6 7.0 0.12 0.28 0.28 97 1004.7
20260506085003 56 175 3.5 5.2 0.09 0.27 0.27 97 1004.7
20260506084500 56 219 3.5 7.8 0.09 0.26 0.26 97 1004.8
20260506083956 56 184 3.5 5.2 0.12 0.25 0.25 97 1005.0
20260506083454 56 180 2.6 5.2 0.14 0.24 0.24 97 1004.9
20260506082951 56 173 4.3 4.3 0.09 0.23 0.23 97 1005.1
20260506082448 56 191 2.6 3.5 0.09 0.22 0.22 97 1005.2
20260506081943 56 177 2.6 4.3 0.12 0.21 0.21 97 1005.3
20260506081442 56 193 2.6 4.3 0.14 0.20 0.20 97 1005.0
20260506080939 56 191 1.7 2.6 0.12 0.19 0.19 97 1005.2
20260506080436 56 185 1.7 1.7 0.09 0.18 0.18 96 1005.0
20260506073420 56 197 1.7 1.7 0.00 0.13 0.13 95 1004.9
20260506072917 56 246 0.9 1.7 0.00 0.13 0.13 95 1005.1
20260506072414 56 197 0.9 1.7 0.00 0.13 0.13 95 1004.7
20260506071912 56 177 0.9 2.6 0.00 0.13 0.13 95 1005.0
20260506071410 56 179 1.7 2.6 0.00 0.13 0.13 95 1004.9
20260506070906 56 177 1.7 3.5 0.00 0.13 0.13 95 1004.9
20260506070403 56 195 1.7 2.6 0.00 0.13 0.13 95 1005.0
20260506062340 57 179 1.7 3.5 0.02 0.12 0.12 95 1005.6
20260506061836 57 191 0.0 3.5 0.05 0.12 0.12 95 1005.7
20260506061333 57 197 0.9 4.3 0.05 0.12 0.12 94 1006.1
20260506060831 57 211 0.0 2.6 0.05 0.11 0.11 94 1005.8
20260506060329 57 272 0.0 3.5 0.05 0.11 0.11 94 1006.1
20260506051300 58 201 1.7 3.5 0.05 0.07 0.07 95 1006.7
20260506050759 58 205 1.7 3.5 0.05 0.07 0.07 95 1007.1
20260506050256 58 188 1.7 1.7 0.02 0.06 0.06 95 1006.9
20260506044746 58 186 1.7 2.6 0.05 0.06 0.06 95 1007.2
20260506044244 58 174 1.7 1.7 0.02 0.05 0.05 95 1007.2
20260506043741 58 165 0.0 1.7 0.05 0.05 0.05 94 1007.2
20260506043238 58 177 1.7 2.6 0.09 0.05 0.05 94 1007.2
20260506042737 58 183 1.7 1.7 0.09 0.04 0.04 94 1007.4
20260506042235 59 89 0.0 1.7 0.09 0.03 0.03 93 1007.4
20260506041733 59 207 1.7 2.6 0.07 0.02 0.02 93 1007.5
20260506041230 59 203 1.7 4.3 0.07 0.01 0.01 92 1007.6
20260506040727 59 212 3.5 3.5 0.07 0.01 0.01 92 1007.6
20260506040224 59 193 2.6 2.6 0.05 0.00 0.00 91 1007.4
20260506035721 59 227 2.6 3.5 0.02 0.02 0.02 90 1007.2
20260506035218 59 216 3.5 5.2 0.00 0.02 0.02 89 1007.3
20260506034714 59 265 1.7 2.6 0.02 0.02 0.02 89 1007.2
20260506034212 59 281 1.7 3.5 0.02 0.02 0.02 88 1007.2
20260506033709 60 294 2.6 7.0 0.00 0.01 0.01 87 1007.2
20260506033206 60 247 0.0 1.7 0.00 0.01 0.01 86 1007.2
20260506032703 60 294 4.3 4.3 0.00 0.01 0.01 86 1007.4
20260506032200 60 263 1.7 4.3 0.00 0.01 0.01 86 1007.4
20260506031657 60 269 2.6 4.3 0.00 0.01 0.01 85 1007.3
20260506031154 60 298 2.6 5.2 0.00 0.01 0.01 85 1007.2
20260506030652 60 297 1.7 7.0 0.00 0.01 0.01 84 1007.0
20260506030149 60 298 3.5 3.5 0.00 0.01 0.01 84 1007.4
20260506025646 60 285 3.5 4.3 0.00 0.01 0.01 83 1007.3
20260506025142 60 252 2.6 5.2 0.00 0.01 0.01 83 1007.4
20260506024640 60 281 2.6 2.6 0.00 0.01 0.01 82 1007.3
20260506024136 61 214 0.0 1.7 0.00 0.01 0.01 81 1007.1
20260506023632 61 201 0.0 0.0 0.00 0.01 0.01 81 1007.0
20260506023129 61 321 0.0 1.7 0.00 0.01 0.01 81 1007.1
20260506022627 61 257 1.7 2.6 0.00 0.01 0.01 81 1007.2
20260506022124 61 308 1.7 4.3 0.00 0.01 0.01 80 1007.0
20260506021622 61 187 0.0 1.7 0.00 0.01 0.01 80 1007.0
20260506021119 62 310 3.5 5.2 0.00 0.01 0.01 79 1007.2
20260506020616 62 16 2.6 5.2 0.00 0.01 0.01 78 1007.5
20260506020113 62 261 3.5 7.8 0.00 0.01 0.01 77 1007.2
20260506015611 62 343 3.5 5.2 0.00 0.01 0.01 76 1007.3
20260506015107 63 253 2.6 4.3 0.00 0.01 0.01 74 1007.3
20260506014605 64 5 5.2 7.8 0.00 0.01 0.01 72 1007.3
20260506014100 66 301 4.3 11.3 0.00 0.01 0.01 67 1007.3
20260506013559 68 297 6.1 7.8 0.00 0.01 0.01 53 1007.0
20260506013055 68 186 2.6 5.2 0.00 0.01 0.01 53 1006.7
20260506012551 68 220 1.7 4.3 0.00 0.01 0.01 53 1006.6
20260506012048 68 204 2.6 6.1 0.00 0.01 0.01 53 1006.5
20260506011546 68 198 4.3 10.4 0.00 0.01 0.01 53 1006.5
20260506011042 68 225 2.6 10.4 0.00 0.01 0.01 53 1006.3
20260506010542 68 231 3.5 5.2 0.00 0.01 0.01 53 1006.5
20260506010038 68 187 3.5 7.8 0.00 0.01 0.01 53 1006.2
20260506005535 68 244 3.5 5.2 0.00 0.01 0.01 53 1006.4
20260506005031 68 229 3.5 7.0 0.00 0.01 0.01 53 1006.3
20260506004528 68 180 3.5 9.6 0.00 0.01 0.01 53 1006.6
20260506004025 68 195 7.0 8.7 0.00 0.01 0.01 53 1006.5
20260506003521 68 184 4.3 5.2 0.00 0.01 0.01 54 1006.7
20260506003017 68 208 2.6 4.3 0.00 0.01 0.01 54 1006.4
20260506002514 68 202 2.6 7.0 0.00 0.01 0.01 55 1006.5
20260506002009 68 222 2.6 12.2 0.00 0.01 0.01 54 1006.4
20260506001506 69 182 0.9 7.8 0.00 0.01 0.01 54 1006.4
20260506001003 69 194 1.7 5.2 0.00 0.01 0.01 54 1006.4
20260506000501 69 219 2.6 3.5 0.00 0.01 0.01 54 1006.4
20260505235957 69 231 1.7 6.1 0.00 0.01 0.01 54 1006.6
20260505235456 69 199 3.5 4.3 0.00 0.01 0.01 53 1006.6
20260505234952 69 222 5.2 8.7 0.00 0.01 0.01 52 1006.5
20260505234450 70 218 5.2 8.7 0.00 0.01 0.01 53 1006.7
20260505233946 70 233 3.5 7.8 0.00 0.01 0.01 53 1006.4
20260505233444 70 190 4.3 12.2 0.00 0.01 0.01 54 1006.6
20260505232941 69 190 2.6 5.2 0.00 0.01 0.01 55 1006.3
20260505232439 70 218 3.5 3.5 0.00 0.01 0.01 54 1006.6
20260505231936 70 213 3.5 6.1 0.00 0.01 0.01 54 1006.5
20260505231433 70 212 2.6 5.2 0.00 0.01 0.01 54 1006.5
20260505230931 70 224 2.6 6.1 0.00 0.01 0.01 54 1006.2
20260505230429 70 182 2.6 5.2 0.00 0.01 0.01 54 1006.3
20260505225925 70 214 3.5 7.8 0.00 0.01 0.01 54 1006.4
20260505225422 70 220 2.6 5.2 0.00 0.01 0.01 54 1006.6
20260505224918 70 203 4.3 4.3 0.00 0.01 0.01 54 1006.8
20260505224415 70 227 3.5 6.1 0.00 0.01 0.01 53 1006.5
20260505223912 70 230 3.5 5.2 0.00 0.01 0.01 52 1006.6
20260505223409 70 211 7.8 13.9 0.00 0.01 0.01 51 1006.6
20260505222905 70 198 1.7 7.0 0.00 0.01 0.01 53 1006.6
20260505222401 70 215 7.0 11.3 0.00 0.01 0.01 53 1006.7
20260505221858 71 226 3.5 12.2 0.00 0.01 0.01 52 1006.7
20260505221355 71 245 0.9 7.0 0.00 0.01 0.01 54 1006.7
20260505220852 71 196 5.2 7.8 0.00 0.01 0.01 54 1006.7
20260505220349 71 209 5.2 10.4 0.00 0.01 0.01 53 1006.7
20260505215847 71 170 3.5 10.4 0.00 0.01 0.01 53 1006.6
20260505215345 71 228 3.5 5.2 0.00 0.01 0.01 54 1006.7
20260505214843 71 234 3.5 8.7 0.00 0.01 0.01 53 1006.8
20260505214340 71 206 3.5 9.6 0.00 0.01 0.01 53 1006.9
20260505213837 71 216 5.2 11.3 0.00 0.01 0.01 52 1006.7
20260505213335 70 237 5.2 13.0 0.00 0.01 0.01 52 1006.9
20260505212830 71 235 7.0 13.9 0.00 0.01 0.01 53 1006.9
20260505212327 71 218 6.1 12.2 0.00 0.01 0.01 54 1006.9
20260505211823 71 227 10.4 13.0 0.00 0.01 0.01 52 1006.8
20260505211321 71 238 7.8 12.2 0.00 0.01 0.01 53 1006.9
20260505210818 71 226 8.7 15.6 0.00 0.01 0.01 51 1007.0
20260505210315 71 210 7.0 17.4 0.00 0.01 0.01 53 1006.9
20260505205812 71 237 7.0 13.9 0.00 0.01 0.01 52 1007.0
20260505205310 71 253 6.1 9.6 0.00 0.01 0.01 53 1007.0
20260505204806 71 226 6.1 10.4 0.00 0.01 0.01 53 1007.0
20260505204304 71 225 7.8 11.3 0.00 0.01 0.01 53 1007.0
20260505203801 71 201 5.2 13.0 0.00 0.01 0.01 54 1006.8
20260505203258 71 245 13.9 16.5 0.00 0.01 0.01 52 1006.9
20260505202754 71 215 10.4 16.5 0.00 0.01 0.01 53 1006.9
20260505202250 71 263 8.7 11.3 0.00 0.01 0.01 53 1006.8
20260505201747 71 186 6.1 12.2 0.00 0.01 0.01 53 1006.9
20260505201244 71 202 4.3 6.1 0.00 0.01 0.01 54 1006.7
20260505200743 71 233 4.3 11.3 0.00 0.01 0.01 56 1006.7
20260505200240 71 213 5.2 12.2 0.00 0.01 0.01 53 1007.1
20260505195735 71 238 2.6 6.1 0.00 0.01 0.01 54 1006.9
20260505195233 71 209 3.5 11.3 0.00 0.01 0.01 53 1007.0
20260505194730 70 144 1.7 8.7 0.00 0.01 0.01 53 1007.1
20260505194226 70 227 4.3 6.1 0.00 0.01 0.01 53 1007.3
20260505193722 70 234 4.3 5.2 0.00 0.01 0.01 54 1007.2
20260505193219 70 254 5.2 12.2 0.00 0.01 0.01 53 1007.3
20260505192718 70 205 7.8 9.6 0.00 0.01 0.01 53 1007.2
20260505192215 70 237 4.3 11.3 0.00 0.01 0.01 52 1007.3
20260505191713 70 243 9.6 11.3 0.00 0.01 0.01 51 1007.4
20260505191211 71 250 12.2 14.8 0.00 0.01 0.01 51 1007.4
20260505190707 71 224 9.6 11.3 0.00 0.01 0.01 51 1007.6
20260505190207 71 228 7.0 13.9 0.00 0.01 0.01 52 1007.6
20260505185704 71 234 11.3 14.8 0.00 0.01 0.01 51 1007.6
20260505185200 71 214 5.2 11.3 0.00 0.01 0.01 52 1007.5
20260505184657 71 239 7.0 14.8 0.00 0.01 0.01 50 1007.4
20260505184154 71 221 12.2 13.0 0.00 0.01 0.01 50 1007.4
20260505183651 71 225 5.2 12.2 0.00 0.01 0.01 51 1007.7
20260505183148 72 239 5.2 13.9 0.00 0.01 0.01 49 1007.4
20260505182645 72 218 12.2 13.9 0.00 0.01 0.01 51 1007.6
20260505182142 72 232 9.6 16.5 0.00 0.01 0.01 50 1007.6
20260505181638 72 253 9.6 14.8 0.00 0.01 0.01 49 1007.6
20260505181136 72 248 9.6 12.2 0.00 0.01 0.01 50 1007.5
20260505180631 72 216 11.3 17.4 0.00 0.01 0.01 49 1007.6